sat.trackr.live / text

‹ back to catalog

STARLINK-5107

NORAD 54826 · 2022-177G

PAYLOAD ACTIVE UNKNOWN

§ Identity

Operator
Country
US
Launch date
2022-12-28
Launch site
AFETR
Launch vehicle
Mass (kg)
RCS (m²)

Purposes: comms

External: N2YO · Heavens-Above · Gunter

§ Orbital elements

Epoch: 2026-05-25T03:11:49.401024Z

Period
94.27 min
Inclination
43.0010°
Eccentricity
0.0000946
Mean motion
15.27575295 rev/d
Perigee alt
482.4 km
Apogee alt
483.7 km
Semi-major
6,861.2 km
B*
2.6040e-6
RAAN
64.4085°
Arg perigee
250.5455°
Mean anomaly
109.5294°
Rev number
18,861

§ Raw data

STARLINK-51071 54826U 22177G   26145.13321066 -.00000190  00000+0  26040-5 0  99912 54826  43.0010  64.4085 0000946 250.5455 109.5294 15.27575295188619

JSON: /api/v1/satellites/54826 · /tle

For live sub-satellite position, see the globe view (requires WebGL).

§ Visibility from observer

Set your observer location to see the next 7 days of passes ≥ 10°. The values pass through the URL so the page stays shareable.

No JS? Fill the form by hand. The geolocation button needs JavaScript.